Flag for U.S.A. Weather past 2 weeks in Paradise, Nevada, U.S.A.

Now
100 °F

Passing clouds.


Feels Like: 96 °F
Forecast: 78 / 105 °F
Wind: 6 mph from Northeast

Location: McCarran International Airport

Current Time: Aug 2, 2015 at 8:28:52 PM

Latest Report: Aug 2, 2015 at 7:56 PM


Visibility: 10 mi

Pressure: 29.66 "Hg (27.63 "Hg at 643m altitude)

Humidity: 15%

Dew point: 45 °F

Location of ParadiseLocation

Historic Weather in Paradise — Graph

°F

Paradise temperature yesterday

Maximum temperature yesterday: 92 °F (at 12:56 AM)
Minimum temperature yesterday: 80 °F (at 11:56 AM)
Average temperature yesterday: 87 °F

Past Weeks' High & Low Weather Summary

 TemperatureHumidityPressure
High104 °F (Jul 30, 5:56 PM)64% (Jul 19, 4:56 AM)30.03 "Hg (Jul 19, 4:56 AM)
Low74 °F (Jul 19, 4:56 AM)4% (Jul 26, 5:56 PM)29.59 "Hg (Jul 22, 5:56 PM)
Average90 °F24%29.81 "Hg
* Reported Jul 18 6:56 PM — Aug 2 6:56 PM, Paradise, Weather by CustomWeather, © 2015

Note: Actual official high and low records may vary slightly from our data, if they occured in-between our weather recording intervals... More about our weather records

Advertising

Paradise weather history for previous 24 hours

 ConditionsComfort  
Time TempWeatherWind HumidityBarometerVisibility
6:56 PM
Sun, Aug 2
102 °FScattered clouds.3 mph14%29.65 "Hg10 mi
5:56 PM101 °FScattered clouds.3 mph15%29.65 "Hg10 mi
4:56 PM102 °FScattered clouds.5 mph15%29.67 "Hg10 mi
3:56 PM101 °FScattered clouds.9 mph17%29.69 "Hg10 mi
2:56 PM102 °FScattered clouds.8 mph16%29.72 "Hg10 mi
1:56 PM100 °FScattered clouds.8 mph18%29.75 "Hg10 mi
12:56 PM97 °FPassing clouds.5 mph20%29.78 "Hg10 mi
11:56 AM95 °FPassing clouds.3 mph23%29.80 "Hg10 mi
10:56 AM92 °FPassing clouds.3 mph27%29.82 "Hg10 mi
9:56 AM89 °FPassing clouds.3 mph29%29.82 "Hg10 mi
8:56 AM85 °FScattered clouds.6 mph35%29.83 "Hg10 mi
7:56 AM82 °FScattered clouds.No wind40%29.82 "Hg10 mi
6:56 AM79 °FScattered clouds.No wind42%29.82 "Hg10 mi
5:56 AM77 °FPassing clouds.No wind47%29.80 "Hg10 mi
4:56 AM79 °FPassing clouds.No wind42%29.79 "Hg10 mi
3:56 AM79 °FPassing clouds.6 mph44%29.80 "Hg10 mi
2:56 AM79 °FPassing clouds.6 mph44%29.80 "Hg10 mi
1:56 AM81 °FPassing clouds.6 mph42%29.80 "Hg10 mi
12:56 AM82 °FPartly cloudy.3 mph41%29.80 "Hg10 mi
11:56 PM
Sat, Aug 1
84 °FPartly cloudy.14 mph40%29.82 "Hg10 mi
10:56 PM83 °FPartly cloudy.10 mph43%29.81 "Hg10 mi
9:56 PM85 °FPartly cloudy.12 mph36%29.81 "Hg10 mi
8:56 PM87 °FPartly cloudy.10 mph30%29.80 "Hg10 mi
Weather by CustomWeather, © 2015

See weather overviewHow to use our weather pages